Location: Unspecified
(42.3650°N, 71.1030°W)
Time: 02:03:56
(UTC+00:00)

YAOGAN 1 - Pass Details

Date: 02 March 2024
Orbit: 612 x 614 km, 97.8° (Epoch: 13 April)

Event Time Altitude Azimuth Distance (km) Brightness Sun altitude
Rises 23:09:36 0° 156° (SSE) 2,870 5.8 -7.0°
Reaches altitude 10° 23:11:47 10° 152° (SSE) 1,970 4.9 -7.4°
Maximum altitude 23:16:00 59° 74° (ENE) 717 2.6 -8.1°
Drops below altitude 10° 23:20:14 10° 355° (N) 1,985 5.2 -8.9°
Sets 23:22:27 0° 352° (N) 2,895 6.1 -9.3°
